Flag for U.S.A. Weather past 2 weeks in Philadelphia, Pennsylvania, U.S.A.

Now
30 °F

Overcast.


Feels Like: 22 °F
Forecast: 19 / 26 °F
Wind: 9 mph from North

Location: Philadelphia International Airport

Current Time: Feb 26, 2015 at 6:42:07 PM

Latest Report: Feb 26, 2015 at 5:54 PM


Visibility: 10 mi

Pressure: 30.04 "Hg

Humidity: 59%

Dew point: 17 °F

Location of PhiladelphiaLocation

Historic Weather in Philadelphia — Graph

°F

Philadelphia temperature yesterday

Maximum temperature yesterday: 38 °F (at 3:54 PM)
Minimum temperature yesterday: 16 °F (at 2:54 AM)
Average temperature yesterday: 29 °F

Past Weeks' High & Low Weather Summary

 TemperatureHumidityPressure
High45 °F (Feb 22, 3:54 PM)96% (Feb 22, 2:54 AM)30.53 "Hg (Feb 22, 2:54 AM)
Low2 °F (Feb 20, 6:54 AM)21% (Feb 13, 1:54 PM)29.49 "Hg (Feb 14, 7:54 PM)
Average22 °F52%30.07 "Hg
* Reported Feb 11 4:54 PM — Feb 26 4:54 PM, Philadelphia, Weather by CustomWeather, © 2015

Note: Actual official high and low records may vary slightly from our data, if they occured in-between our weather recording intervals... More about our weather records

Advertising

Philadelphia weather history for previous 24 hours

 ConditionsComfort  
Time TempWeatherWind HumidityBarometerVisibility
4:54 PM
Thu, Feb 26
31 °FOvercast.10 mph57%30.01 "Hg10 mi
3:54 PM32 °FOvercast.9 mph52%29.98 "Hg10 mi
2:54 PM31 °FOvercast.12 mph49%29.95 "Hg10 mi
1:54 PM32 °FOvercast.12 mph47%29.90 "Hg10 mi
12:54 PM31 °FPartly sunny.16 mph49%29.91 "Hg10 mi
11:54 AM29 °FBroken clouds.16 mph49%29.93 "Hg10 mi
10:54 AM29 °FMostly cloudy.18 mph47%29.96 "Hg10 mi
9:54 AM28 °FOvercast.12 mph47%29.98 "Hg10 mi
8:54 AM28 °FMore clouds than sun.14 mph51%29.98 "Hg10 mi
7:54 AM26 °FLight snow. Mostly cloudy.10 mph66%29.97 "Hg8 mi
7:01 AM28 °FLight snow. Mostly cloudy.14 mph51%29.98 "Hg4 mi
6:57 AM28 °FLight snow. Cloudy.10 mph49%29.98 "Hg6 mi
5:54 AM28 °FMostly cloudy.16 mph51%29.95 "Hg10 mi
4:54 AM30 °FMostly cloudy.12 mph49%29.95 "Hg10 mi
3:54 AM31 °FMostly cloudy.12 mph57%29.95 "Hg10 mi
2:54 AM30 °FMostly cloudy.5 mph69%29.96 "Hg10 mi
1:54 AM30 °FMostly cloudy.No wind75%29.98 "Hg10 mi
12:54 AM29 °FMostly cloudy.3 mph72%29.98 "Hg10 mi
11:54 PM
Wed, Feb 25
32 °FMostly cloudy.No wind59%30.00 "Hg10 mi
10:54 PM29 °FOvercast.3 mph72%29.96 "Hg10 mi
9:54 PM31 °FOvercast.No wind64%29.97 "Hg10 mi
8:54 PM32 °FHigh level clouds.6 mph61%30.00 "Hg10 mi
7:54 PM33 °FPassing clouds.8 mph54%30.00 "Hg10 mi
6:54 PM35 °FPassing clouds.9 mph48%29.98 "Hg10 mi
Weather by CustomWeather, © 2015

See weather overviewHow to use our weather pages